Погода в Казачке

Россия / Тульская область     53°21′50″N   38°04′10″E
темп.,
°C
ветер,
м/с
пор.,
м/с
влажн.,
%
обл.,
%
осадки,
мм/ч
давл.,
гПа
погр.,
м
10 мая, пн
пн1000:00+3ссз37925 0.0 1020150
03:00+3сз514855 0.0 1022291
06:00+3ссз614842 0.0 1023374
09:00+9с814647 0.0 10231271
12:00+11с9115192 0.0 10231377
15:00+12ссв91359100 0.0 10221378
18:00+10ссв81466100 0.0 1022982
21:00+9ссв8166995 0.0 1023620
11 мая, вт
вт1100:00+8ссв81681100 0.0 1023471
03:00+8ссв71686100 0.1 1023477
06:00+9ссв8188748 0.0 1021429
09:00+12св8138179 0.0 1022569
12:00+16всв81272100 0.0 1021972
15:00+12юв51187100 0.7 1023480
18:00+13вюв587542 0.0 10241014
21:00+9юв39855 0.0 1026181
12 мая, ср
ср1200:00+7вюв34913 0.0 102768
03:00+6в229311 0.0 102626
06:00+7св3590100 0.0 1025131
09:00+11св4669100 0.0 1023555
12:00+9всв2393100 4.1 1022207
15:00+12в237418 6.1 1021687
18:00+13в477735 0.0 1020703
21:00+9в4119215 0.0 1020211
13 мая, чт
чт1300:00+9в51291100 0.1 1019271
03:00+9вюв4129616 0.3 1018262
06:00+9юв279577 0.0 1018202
09:00+15юв35753 0.0 1018508
12:00+18ююв465736 0.1 10171702
15:00+17ююв2568100 0.1 1017320
18:00+18вюв346844 0.0 1017105
21:00+14вюв3478100 0.0 101748
14 мая, пт
пт1400:00+13в3381100 0.0 101734
03:00+12в378965 0.0 1017117
06:00+13вюв5119398 0.0 1016264
09:00+18вюв6980100 0.0 1015474
12:00+22юв71067100 0.4 10151280
15:00+22юв477067 1.4 10131115
18:00+14св359191 11.0 1013122
21:00+14в478990 12.9 1012124